Other Public Products
Issued by NWS Grand Forks, ND

Home | Current Version | Previous Version | Graphics & Text | Print | Product List | Glossary On
Versions: 1 2 3 4 5 6 7 8 9 10 11 12 13 14 15 16 17 18 19 20 21 22 23 24 25 26 27 28 29 30 31 32 33 34 35 36 37 38 39 40 41 42 43 44 45 46 47 48 49 50
000
FPUS83 KFGF 142331
OPUFGF
PRAIRIE TO PINES WEATHER ROUNDUP
NATIONAL WEATHER SERVICE EASTERN NORTH DAKOTA/GRAND FORKS ND
600 PM CDT SUN SEP 14 2014

 **SATELLITE DATA USED TO AUGMENT SKY COVER AT AUTOMATED STATIONS**
 *****  WEATHER ACROSS EASTERN NORTH DAKOTA  *****

CITY           SKY/WX    TMP DP  RH WIND       PRES   REMARKS
GRAND FORKS    CLOUDY    56  41  57 NW7       30.10S
GRAND FORKS AF CLOUDY    56  40  54 N8        30.11S
GRAND CITY NWS   N/A     54 N/A N/A N6          N/A
BUXTON           N/A     57  41  55 NW6         N/A
DEVILS LAKE    CLOUDY    54  34  47 N10       30.11R
FARGO          CLOUDY    58  41  53 NW9       30.11S
WAHPETON ARPT  PTCLDY    55  41  58 NW7       30.12R
$$

 *****  WEATHER ACROSS CENTRAL AND WESTERN NORTH DAKOTA  *****

CITY           SKY/WX    TMP DP  RH WIND       PRES   REMARKS
JAMESTOWN      CLOUDY    55  40  56 N7        30.12R
BISMARCK       MOSUNNY   58  32  37 N10       30.14S
MINOT          CLOUDY    55  32  41 N12       30.14R
MINOT AFB      CLOUDY    56  32  41 N10       30.13S
GARRISON         N/A     55  33  43 N9        30.14R
WILLISTON      CLOUDY    56  29  35 CALM      30.16R
DICKINSON      CLOUDY    54  31  41 CALM      30.13S
HETTINGER      CLOUDY    57  30  35 SE5       30.14R
$$

 *****  OTHER OBSERVATIONS NORTHEAST NORTH DAKOTA  *****

CITY           SKY/WX    TMP DP  RH WIND       PRES   REMARKS
WALHALLA         N/A     54  37  54 N9        30.11S
LANGDON        FAIR      52  36  54 NW10      30.11R
CAVALIER       MOCLDY    55  37  50 N10G16    30.11R
GRAFTON        MOCLDY    54  37  54 N7        30.10S
CANDO          MOCLDY    54  34  47 NW5       30.13S
FORT TOTTEN    NOT AVBL
ROLLA          CLOUDY    50  32  50 NW8       30.14R
RUGBY          MOCLDY    54  37  54 NW5       30.14R
 ***** THE ABOVE OBSERVATIONS ARE NON NWS ARE NOT QUALITY
        CONTROLLED AND MAY MIS-REPORT RAIN FOR SNOW...
$$

 *****  OTHER OBSERVATIONS SOUTHEAST NORTH DAKOTA *****

CITY           SKY/WX    TMP DP  RH WIND       PRES   REMARKS
COOPERSTOWN    NOT AVBL
VALLEY CITY    CLOUDY    54  41  62 N6        30.13R
OAKES            N/A     55  41  58 NW6       30.13S
GWINNER        PTCLDY    55  39  54 W6        30.14R
BUFFALO          N/A     56  31  39 N8          N/A
WYNDMERE         N/A     55  41  58 W3          N/A
 ***** THE ABOVE OBSERVATIONS ARE NON NWS ARE NOT QUALITY
       CONTROLLED AND MAY MIS-REPORT RAIN FOR SNOW...
$$

  *****  WEATHER ACROSS NORTHERN MINNESOTA  *****

CITY           SKY/WX    TMP DP  RH WIND       PRES   REMARKS
FLAG ISLAND    CLOUDY    52  45  76 W18G24    30.04R
WARROAD        PTSUNNY   52  45  76 NW12G17   30.07R
ROSEAU         CLOUDY    52  45  76 NW7       30.08R
HALLOCK        MOSUNNY   55  37  50 NW9       30.09S
THF RVR FALLS  CLOUDY    54  43  66 W9G16     30.10R
HALSTAD          N/A     56  37  49 NW8         N/A
FOSSTON        CLOUDY    52  43  71 W7        30.11R
BAUDETTE       CLOUDY    51  44  77 VRB6      30.05R
WASKISH        SUNNY     54  46  76 W10       30.07R
CROOKSTON      PTSUNNY   54  46  76 NW3       30.11S
$$
  *****  WEATHER ACROSS CENTRAL AND WEST MINNESOTA  *****

CITY           SKY/WX    TMP DP  RH WIND       PRES   REMARKS
BEMIDJI        PTSUNNY   53  43  69 W9        30.10R
PARK RAPIDS    MOSUNNY   53  43  68 NW9       30.11R
WADENA         CLOUDY    54  43  66 CALM      30.12R
DETROIT LAKES  MOSUNNY   54  43  66 N6        30.13R
MOORHEAD       MOSUNNY   57  43  58 N6        30.13R
FERGUS FALLS   PTSUNNY   55  41  58 N3        30.12S
ELBOW LAKE     FAIR      56  42  58 W5        30.12R
MORRIS MN      MOSUNNY   61  41  48 W8        30.12R
STAPLES        CLOUDY    54  43  66 W5        30.12R
WHEATON        PTSUNNY   55  41  58 W7        30.14R
$$
  *****  WEATHER ELSEWHERE ACROSS MINNESOTA  *****

CITY           SKY/WX    TMP DP  RH WIND       PRES   REMARKS
DULUTH         MOSUNNY   57  41  55 W14       30.05R
INTRNTL FALLS  SUNNY     56  45  66 CALM      30.02S
ELY            SUNNY     52  45  76 W5        30.02S
CLOQUET        PTSUNNY   55  41  58 W8        30.07R
BRAINERD       CLOUDY    53  42  66 NW8       30.11S
HIBBING        CLOUDY    55  42  61 N12       30.05R
ALEXANDRIA     PTSUNNY   56  42  59 W7        30.13S
SAINT CLOUD    PTSUNNY   60  42  51 NW9       30.12R
MINNEAPOLIS    PTSUNNY   60  39  45 NW9       30.11R
$$

  *****  WEATHER ACROSS SOUTH DAKOTA  *****

CITY           SKY/WX    TMP DP  RH WIND       PRES   REMARKS
SIOUX FALLS    PTSUNNY   61  46  57 NE7       30.10F
BROOKINGS      NOT AVBL
WATERTOWN      PTSUNNY   56  36  47 W3        30.12S
HURON          LGT RAIN  52  44  74 NE3       30.14R
SISSETON         N/A     58  41  53 NW9       30.12R
ABERDEEN       MOSUNNY   58  38  47 N6        30.12S
MITCHELL       CLOUDY    56  44  64 NE9       30.12F
PIERRE         CLOUDY    55  38  52 NE5       30.12S
MOBRIDGE       PTSUNNY   56  38  50 NE6       30.11S
RAPID CITY     PTSUNNY   54  39  57 E7        30.11S
$$

  *****  SOME WEATHER IN NEARBY STATES *****

CITY           SKY/WX    TMP DP  RH WIND       PRES   REMARKS
GLASGOW MT     PTSUNNY   58  31  35 SW6       30.14S
GREAT FALLS MT SUNNY     64  35  34 CALM      30.11S
CHEYENNE WY    PTSUNNY   76  27  16 W23G33    30.07R
SCOTTSBLUFF NE MOSUNNY   69  51  52 NE10      30.02R
OMAHA NE       PTSUNNY   71  48  43 SE14      30.06F
DES MOINES IA  PTSUNNY   68  50  52 S7        30.11F
DAVENPORT IA   SUNNY     64  44  48 SW7       30.18S
CHICAGO IL     MOSUNNY   64  42  44 SW8       30.18S
EAU CLAIRE WI  SUNNY     63  38  39 W14       30.08S
LA CROSSE WI   PTSUNNY   68  50  52 SW10      30.08S
$$

  *****  SOME NATIONAL WEATHER *****

CITY           SKY/WX    TMP DP  RH WIND       PRES   REMARKS
LA GUARDIA NY  MOCLDY    67  43  41 E9        30.18R
RALEIGH NC     MOCLDY    67  59  75 NE6       30.21F
ATLANTA GA     CLOUDY    70  64  83 E12       30.17F
NEW ORLEANS LA MOSUNNY   88  73  61 NE7       30.04S HX  95
OKLAHOMA CITY  CLOUDY    72  62  71 S9        30.13F
ALBUQUERQUE NM MOSUNNY   81  51  35 SW16      30.14F
SALT LAKE CITY PTSUNNY   86  35  16 NE9       29.99S
LOS ANGELES CA MOSUNNY   80  62  54 W15       29.70F
BOISE ID       SUNNY     85  31  14 NW7       29.91F
SEATTLE WA     SUNNY     83  43  24 NW8       29.87F
$$

*** WEATHER ACROSS MANITOBA...SASKATCHEWAN AND ONTARIO ***
                ***ONTARIO***

CITY           SKY/WX    TMP DP  RH WIND       PRES   REMARKS
GERALDTON      LGT RAIN N/A N/A N/A S5          N/A
THUNDER BAY    PTSUNNY   54  46  76 W15G22    29.95R
SIOUX LOOKOUT  PTSUNNY   52  45  76 VRB2      29.97R
TORONTO        MOCLDY    57  45  62 SE7       30.22F
BIG TROUT LK   PTSUNNY   45  39  81 VRB2      29.97S
PICKLE LAKE    PTSUNNY   50  41  71 NW3       29.94R
DRYDEN         LGT RAIN  48  45  87 NW12G21   30.02R
KENORA         PTSUNNY   50  46  87 NW6       30.03R
$$
                *** MANITOBA***

CITY           SKY/WX    TMP DP  RH WIND       PRES   REMARKS
BRANDON        PTSUNNY   52  37  58 N8        30.13F
DAUPHIN        CLOUDY    54  36  50 W8        30.09F
ISLAND LAKE    PTSUNNY   48  34  57 NW6       30.02S
PILOT MOUND      N/A     52  36  54 NW10        N/A
THE PAS        PTSUNNY   59  36  41 SW10G18   29.96F
THOMPSON       PTSUNNY   54  37  54 SW6       29.92F
WINNIPEG       PTSUNNY   54  36  50 NW12G20   30.10R
LYNN LAKE      MOSUNNY   54  34  47 MISG      29.91S
CHURCHILL      PTSUNNY   48  37  66 W3        29.82F
GILLAM         PTSUNNY   52  36  54 SW8       29.90F
$$
                ***SASKATCHEWAN***

CITY           SKY/WX    TMP DP  RH WIND       PRES   REMARKS
ESTEVAN        CLOUDY    54  36  50 NW2       30.15S
KINDERSLEY     PTSUNNY   63  37  39 W9        30.07
LLOYDMINSTER   PTSUNNY   63  36  36 W9        30.03
PRINCE ALBERT  PTSUNNY   59  36  41 W13       30.04F
REGINA         PTSUNNY   55  36  47 VRB2      30.13R
YORKTON        CLOUDY    55  34  44 W8        30.10S



USA.gov is the U.S. government's official web portal to all federal, state and local government web resources and services.